ARIANE 42P DEB *, 47108

Orbit data source: Space-Track

ARIANE 42P DEB *, 47108 is space debris in LEO originally from a launch on Mon, 10 Aug 1992 UTC launched from the French Guiana (FRGUI). Debris objects in space refer to the collection of defunct objects orbiting the Earth. Examples of debris include non-operational satellites, rocket bodies, and fragments generated from explosions, collisions, or faulty payload assembly.

Loading next visibility...
Identifier
47108, 1992-052P
Orbit
LEO
Last TLE update
14 hours ago
Origin
Manufacturer
ArianeGroup
Mission
Spacecraft
Bus & Motor
Unknown
Mass
Unknown
Launch date (UTC)
1992-08-10 (33 years ago)
Launch vehicle
Unknown
Launch site
French Guiana (FRGUI)
Object type
Payload
Rocket body
Debris
Shape & HBR
Unknown
Radar Cross Section
Small (<0.1 m²)

Expand to show TLE details & history

TLE from 14 hours ago
0 ARIANE 42P DEB *
1 47108U 92052P   25132.89966437  .00001635  00000-0  92437-3 0  9996
2 47108  65.8174 100.7915 1165718  88.2113 285.1733 12.43166633 49421
Epoch: 2025-05-12T21:35Z
Definitive object data (Epoch: 2025-05-12T21:35:31.001Z)
Latitude
0.00002°
Longitude
-93.99379°
Altitude
1,358.363 km
Speed
7.242 km/s
True Right ascension
06h 43m 09s
True Declination
0° 00' 00"
Sunlit
Object was in daylight at TLE epoch
Visualization TLE readout
Latitude
43.03713°
Longitude
-70.4976°
Altitude
752.354 km
Speed
7.83 km/s
Apparent Right ascension
08h 01m 53s
Apparent Declination
4° 22' 48"
Sunlit
Object is in daylight
Visualization observer readout
Local Sidereal Time
19:45:37
Azimuth
354.208° N
Elevation
-45.546°
Doppler factor
1
Orbital elements
Apogee altitude
2,409.207 km
Perigee altitude
574.383 km
Semi-major axis
7,869.932 km
Eccentricity
0.1165718
Inclination
65.8174°
RAAN
100.7915°
Arg. of periapsis
88.2113°
True anomaly
271.89098°
Mean anomaly
285.1733°
Eccentric anomaly
278.56878°
Mean motion
3.10876 °/min
BSTAR
0.00092437
Orbital period
115.8 mins
Loading maneuver chart data...
Loading SW <> Apogee altitude chart data...
Loading historical data...
Loading historical data...
Loading historical data...
Loading historical data...
Loading historical data...
Loading historical data...
Loading historical data...

ARIANE 42P DEB * Visibility forecast

Observer location: undefined°, undefined°

Span
Click to sort rows by Start time (UTC) header in descending order
Start Az.
Max El. time (UTC)
Max El. Az.
Max El.
End time (UTC)
End Az.
9 mins2025-05-13 22:48:13.341Z181.487° SSW2025-05-13 22:53:13.341Z116.571° SE33.068°2025-05-13 22:57:13.341Z49.41° ENE
6 mins2025-05-14 00:49:13.341Z266.558° W2025-05-14 00:52:13.341Z307.946° NW20.066°2025-05-14 00:55:13.341Z355.273° N
4 mins2025-05-14 06:57:13.341Z31.435° NE2025-05-14 06:58:13.341Z46.48° ENE15.68°2025-05-14 07:01:13.341Z83.54° E
9 mins2025-05-14 08:54:13.341Z315.951° NNW2025-05-14 08:57:13.341Z258.57° W40.47°2025-05-14 09:03:13.341Z165.495° S
|